Year,Month,Day,Hour,Minute,Value (Times are PST for temperature in C)
2007,03,27,00,00,5.30
2007,03,27,00,01,5.30
2007,03,27,00,02,5.30
2007,03,27,00,03,5.30
2007,03,27,00,04,5.30
2007,03,27,00,05,5.30
2007,03,27,00,06,5.30
2007,03,27,00,07,5.30
2007,03,27,00,08,5.20
2007,03,27,00,09,5.30
2007,03,27,00,10,5.30
2007,03,27,00,11,5.30
2007,03,27,00,12,5.30
2007,03,27,00,13,5.30
2007,03,27,00,14,5.30
2007,03,27,00,15,5.30
2007,03,27,00,16,5.30
2007,03,27,00,17,5.30
2007,03,27,00,18,5.20
2007,03,27,00,19,5.20
2007,03,27,00,20,5.20
2007,03,27,00,21,5.20
2007,03,27,00,22,5.20
2007,03,27,00,23,5.20
2007,03,27,00,24,5.20
2007,03,27,00,25,5.20
2007,03,27,00,26,5.10
2007,03,27,00,27,5.10
2007,03,27,00,28,5.10
2007,03,27,00,29,5.10
2007,03,27,00,30,5.10
2007,03,27,00,31,5.10
2007,03,27,00,32,5.10
2007,03,27,00,33,5.10
2007,03,27,00,34,5.10
2007,03,27,00,35,5.10
2007,03,27,00,36,5.10
2007,03,27,00,37,5.10
2007,03,27,00,38,5.00
2007,03,27,00,39,4.90
2007,03,27,00,40,4.90
2007,03,27,00,41,4.90
2007,03,27,00,42,4.90
2007,03,27,00,43,4.90
2007,03,27,00,44,4.90
2007,03,27,00,45,4.90
2007,03,27,00,46,4.80
2007,03,27,00,47,4.80
2007,03,27,00,48,4.80
2007,03,27,00,49,4.80
2007,03,27,00,50,4.80
2007,03,27,00,51,4.70
2007,03,27,00,52,4.70
2007,03,27,00,53,4.70
2007,03,27,00,54,4.70
2007,03,27,00,55,4.70
2007,03,27,00,56,4.70
2007,03,27,00,57,4.70
2007,03,27,00,58,4.70
2007,03,27,00,59,4.70
2007,03,27,01,00,4.70
2007,03,27,01,01,4.70
2007,03,27,01,02,4.70
2007,03,27,01,03,4.70
2007,03,27,01,04,4.70
2007,03,27,01,05,4.70
2007,03,27,01,06,4.70
2007,03,27,01,07,4.70
2007,03,27,01,08,4.70
2007,03,27,01,09,4.60
2007,03,27,01,10,4.60
2007,03,27,01,11,4.60
2007,03,27,01,12,4.60
2007,03,27,01,13,4.60
2007,03,27,01,14,4.60
2007,03,27,01,15,4.60
2007,03,27,01,16,4.60
2007,03,27,01,17,4.60
2007,03,27,01,18,4.60
2007,03,27,01,19,4.60
2007,03,27,01,20,4.60
2007,03,27,01,21,4.60
2007,03,27,01,22,4.60
2007,03,27,01,23,4.60
2007,03,27,01,24,4.60
2007,03,27,01,25,4.60
2007,03,27,01,26,4.60
2007,03,27,01,27,4.60
2007,03,27,01,28,4.50
2007,03,27,01,29,4.50
2007,03,27,01,30,4.50
2007,03,27,01,31,4.50
2007,03,27,01,32,4.50
2007,03,27,01,33,4.40
2007,03,27,01,34,4.40
2007,03,27,01,35,4.40
2007,03,27,01,36,4.50
2007,03,27,01,37,4.50
2007,03,27,01,38,4.50
2007,03,27,01,39,4.50
2007,03,27,01,40,4.50
2007,03,27,01,41,4.50
2007,03,27,01,42,4.40
2007,03,27,01,43,4.40
2007,03,27,01,44,4.40
2007,03,27,01,45,4.40
2007,03,27,01,46,4.40
2007,03,27,01,47,4.40
2007,03,27,01,48,4.30
2007,03,27,01,49,4.30
2007,03,27,01,50,4.30
2007,03,27,01,51,4.30
2007,03,27,01,52,4.30
2007,03,27,01,53,4.30
2007,03,27,01,54,4.30
2007,03,27,01,55,4.30
2007,03,27,01,56,4.30
2007,03,27,01,57,4.30
2007,03,27,01,58,4.30
2007,03,27,01,59,4.20
2007,03,27,02,00,4.20
2007,03,27,02,01,4.20
2007,03,27,02,02,4.20
2007,03,27,02,03,4.20
2007,03,27,02,04,4.20
2007,03,27,02,05,4.20
2007,03,27,02,06,4.20
2007,03,27,02,07,4.20
2007,03,27,02,08,4.20
2007,03,27,02,09,4.20
2007,03,27,02,10,4.20
2007,03,27,02,11,4.10
2007,03,27,02,12,4.10
2007,03,27,02,13,4.10
2007,03,27,02,14,4.10
2007,03,27,02,15,4.10
2007,03,27,02,16,4.10
2007,03,27,02,17,4.10
2007,03,27,02,18,4.00
2007,03,27,02,19,4.00
2007,03,27,02,20,4.00
2007,03,27,02,21,4.00
2007,03,27,02,22,4.00
2007,03,27,02,23,4.00
2007,03,27,02,24,4.00
2007,03,27,02,25,4.00
2007,03,27,02,26,3.90
2007,03,27,02,27,3.90
2007,03,27,02,28,3.90
2007,03,27,02,29,3.90
2007,03,27,02,30,3.90
2007,03,27,02,31,3.90
2007,03,27,02,32,3.90
2007,03,27,02,33,3.80
2007,03,27,02,34,3.80
2007,03,27,02,35,3.80
2007,03,27,02,36,3.80
2007,03,27,02,37,3.80
2007,03,27,02,38,3.80
2007,03,27,02,39,3.80
2007,03,27,02,40,3.80
2007,03,27,02,41,3.80
2007,03,27,02,42,3.80
2007,03,27,02,43,3.80
2007,03,27,02,44,3.80
2007,03,27,02,45,3.80
2007,03,27,02,46,3.80
2007,03,27,02,47,3.80
2007,03,27,02,48,3.70
2007,03,27,02,49,3.70
2007,03,27,02,50,3.70
2007,03,27,02,51,3.70
2007,03,27,02,52,3.70
2007,03,27,02,53,3.70
2007,03,27,02,54,3.70
2007,03,27,02,55,3.70
2007,03,27,02,56,3.70
2007,03,27,02,57,3.70
2007,03,27,02,58,3.70
2007,03,27,02,59,3.70
2007,03,27,03,00,3.70
2007,03,27,03,01,3.60
2007,03,27,03,02,3.60
2007,03,27,03,03,3.60
2007,03,27,03,04,3.60
2007,03,27,03,05,3.60
2007,03,27,03,06,3.60
2007,03,27,03,07,3.60
2007,03,27,03,08,3.60
2007,03,27,03,09,3.60
2007,03,27,03,10,3.60
2007,03,27,03,11,3.60
2007,03,27,03,12,3.50
2007,03,27,03,13,3.50
2007,03,27,03,14,3.50
2007,03,27,03,15,3.50
2007,03,27,03,16,3.50
2007,03,27,03,17,3.50
2007,03,27,03,18,3.50
2007,03,27,03,19,3.50
2007,03,27,03,20,3.50
2007,03,27,03,21,3.50
2007,03,27,03,22,3.40
2007,03,27,03,23,3.40
2007,03,27,03,24,3.40
2007,03,27,03,25,3.40
2007,03,27,03,26,3.40
2007,03,27,03,27,3.40
2007,03,27,03,28,3.40
2007,03,27,03,29,3.40
2007,03,27,03,30,3.40
2007,03,27,03,31,3.40
2007,03,27,03,32,3.40
2007,03,27,03,33,3.40
2007,03,27,03,34,3.40
2007,03,27,03,35,3.30
2007,03,27,03,36,3.30
2007,03,27,03,37,3.30
2007,03,27,03,38,3.30
2007,03,27,03,39,3.30
2007,03,27,03,40,3.30
2007,03,27,03,41,3.30
2007,03,27,03,42,3.30
2007,03,27,03,43,3.30
2007,03,27,03,44,3.30
2007,03,27,03,45,3.30
2007,03,27,03,46,3.30
2007,03,27,03,47,3.30
2007,03,27,03,48,3.30
2007,03,27,03,49,3.30
2007,03,27,03,50,3.20
2007,03,27,03,51,3.20
2007,03,27,03,52,3.20
2007,03,27,03,53,3.20
2007,03,27,03,54,3.20
2007,03,27,03,55,3.10
2007,03,27,03,56,3.10
2007,03,27,03,57,3.10
2007,03,27,03,58,3.10
2007,03,27,03,59,3.10
2007,03,27,04,00,3.10
2007,03,27,04,01,3.10
2007,03,27,04,02,3.10
2007,03,27,04,03,3.10
2007,03,27,04,04,3.10
2007,03,27,04,05,3.00
2007,03,27,04,06,2.90
2007,03,27,04,07,2.90
2007,03,27,04,08,2.90
2007,03,27,04,09,2.90
2007,03,27,04,10,2.90
2007,03,27,04,11,2.90
2007,03,27,04,12,2.90
2007,03,27,04,13,2.90
2007,03,27,04,14,2.90
2007,03,27,04,15,2.90
2007,03,27,04,16,2.90
2007,03,27,04,17,2.90
2007,03,27,04,18,2.90
2007,03,27,04,19,2.90
2007,03,27,04,20,2.80
2007,03,27,04,21,2.80
2007,03,27,04,22,2.80
2007,03,27,04,23,2.80
2007,03,27,04,24,2.80
2007,03,27,04,25,2.80
2007,03,27,04,26,2.70
2007,03,27,04,27,2.70
2007,03,27,04,28,2.70
2007,03,27,04,29,2.70
2007,03,27,04,30,2.70
2007,03,27,04,31,2.70
2007,03,27,04,32,2.70
2007,03,27,04,33,2.70
2007,03,27,04,34,2.70
2007,03,27,04,35,2.70
2007,03,27,04,36,2.70
2007,03,27,04,37,2.70
2007,03,27,04,38,2.60
2007,03,27,04,39,2.60
2007,03,27,04,40,2.60
2007,03,27,04,41,2.60
2007,03,27,04,42,2.60
2007,03,27,04,43,2.50
2007,03,27,04,44,2.50
2007,03,27,04,45,2.50
2007,03,27,04,46,2.50
2007,03,27,04,47,2.50
2007,03,27,04,48,2.50
2007,03,27,04,49,2.50
2007,03,27,04,50,2.50
2007,03,27,04,51,2.50
2007,03,27,04,52,2.50
2007,03,27,04,53,2.50
2007,03,27,04,54,2.40
2007,03,27,04,55,2.40
2007,03,27,04,56,2.40
2007,03,27,04,57,2.40
2007,03,27,04,58,2.30
2007,03,27,04,59,2.30
2007,03,27,05,00,2.30
2007,03,27,05,01,2.30
2007,03,27,05,02,2.30
2007,03,27,05,03,2.30
2007,03,27,05,04,2.30
2007,03,27,05,05,2.30
2007,03,27,05,06,2.30
2007,03,27,05,07,2.30
2007,03,27,05,08,2.30
2007,03,27,05,09,2.20
2007,03,27,05,10,2.20
2007,03,27,05,11,2.20
2007,03,27,05,12,2.20
2007,03,27,05,13,2.20
2007,03,27,05,14,2.20
2007,03,27,05,15,2.20
2007,03,27,05,16,2.20
2007,03,27,05,17,2.20
2007,03,27,05,18,2.20
2007,03,27,05,19,2.20
2007,03,27,05,20,2.20
2007,03,27,05,21,2.10
2007,03,27,05,22,2.10
2007,03,27,05,23,2.10
2007,03,27,05,24,2.10
2007,03,27,05,25,2.10
2007,03,27,05,26,2.10
2007,03,27,05,27,2.10
2007,03,27,05,28,2.10
2007,03,27,05,29,2.10
2007,03,27,05,30,2.10
2007,03,27,05,31,2.10
2007,03,27,05,32,2.00
2007,03,27,05,33,2.00
2007,03,27,05,34,2.00
2007,03,27,05,35,2.00
2007,03,27,05,36,2.00
2007,03,27,05,37,2.00
2007,03,27,05,38,2.00
2007,03,27,05,39,2.00
2007,03,27,05,40,1.90
2007,03,27,05,41,1.90
2007,03,27,05,42,1.90
2007,03,27,05,43,1.90
2007,03,27,05,44,1.90
2007,03,27,05,45,1.90
2007,03,27,05,46,1.90
2007,03,27,05,47,1.90
2007,03,27,05,48,1.90
2007,03,27,05,49,1.90
2007,03,27,05,50,1.90
2007,03,27,05,51,1.90
2007,03,27,05,52,1.90
2007,03,27,05,53,1.90
2007,03,27,05,54,1.90
2007,03,27,05,55,1.90
2007,03,27,05,56,1.90
2007,03,27,05,57,1.90
2007,03,27,05,58,1.90
2007,03,27,05,59,1.90
2007,03,27,06,00,1.90
2007,03,27,06,01,1.90
2007,03,27,06,02,1.90
2007,03,27,06,03,1.90
2007,03,27,06,04,1.90
2007,03,27,06,05,1.90
2007,03,27,06,06,1.90
2007,03,27,06,07,1.90
2007,03,27,06,08,2.00
2007,03,27,06,09,2.00
2007,03,27,06,10,2.00
2007,03,27,06,11,2.00
2007,03,27,06,12,2.00
2007,03,27,06,13,2.00
2007,03,27,06,14,2.00
2007,03,27,06,15,2.00
2007,03,27,06,16,2.00
2007,03,27,06,17,2.00
2007,03,27,06,18,2.00
2007,03,27,06,19,2.00
2007,03,27,06,20,2.00
2007,03,27,06,21,2.00
2007,03,27,06,22,2.00
2007,03,27,06,23,2.00
2007,03,27,06,24,2.00
2007,03,27,06,25,2.00
2007,03,27,06,26,2.00
2007,03,27,06,27,2.00
2007,03,27,06,28,2.00
2007,03,27,06,29,1.90
2007,03,27,06,30,1.90
2007,03,27,06,31,1.90
2007,03,27,06,32,1.80
2007,03,27,06,33,1.80
2007,03,27,06,34,1.80
2007,03,27,06,35,1.80
2007,03,27,06,36,1.80
2007,03,27,06,37,1.80
2007,03,27,06,38,1.80
2007,03,27,06,39,1.80
2007,03,27,06,40,1.80
2007,03,27,06,41,1.80
2007,03,27,06,42,1.80
2007,03,27,06,43,1.70
2007,03,27,06,44,1.70
2007,03,27,06,45,1.70
2007,03,27,06,46,1.70
2007,03,27,06,47,1.70
2007,03,27,06,48,1.70
2007,03,27,06,49,1.60
2007,03,27,06,50,1.60
2007,03,27,06,51,1.60
2007,03,27,06,52,1.60
2007,03,27,06,53,1.60
2007,03,27,06,54,1.60
2007,03,27,06,55,1.60
2007,03,27,06,56,1.60
2007,03,27,06,57,1.60
2007,03,27,06,58,1.60
2007,03,27,06,59,1.60
2007,03,27,07,00,1.60
2007,03,27,07,01,1.50
2007,03,27,07,02,1.50
2007,03,27,07,03,1.50
2007,03,27,07,04,1.50
2007,03,27,07,05,1.40
2007,03,27,07,06,1.40
2007,03,27,07,07,1.40
2007,03,27,07,08,1.40
2007,03,27,07,09,1.30
2007,03,27,07,10,1.30
2007,03,27,07,11,1.30
2007,03,27,07,12,1.30
2007,03,27,07,13,1.30
2007,03,27,07,14,1.30
2007,03,27,07,15,1.30
2007,03,27,07,16,1.30
2007,03,27,07,17,1.30
2007,03,27,07,18,1.30
2007,03,27,07,19,1.30
2007,03,27,07,20,1.30
2007,03,27,07,21,1.30
2007,03,27,07,22,1.30
2007,03,27,07,23,1.30
2007,03,27,07,24,1.30
2007,03,27,07,25,1.30
2007,03,27,07,26,1.30
2007,03,27,07,27,1.30
2007,03,27,07,28,1.30
2007,03,27,07,29,1.20
2007,03,27,07,30,1.20
2007,03,27,07,31,1.20
2007,03,27,07,32,1.20
2007,03,27,07,33,1.20
2007,03,27,07,34,1.20
2007,03,27,07,35,1.10
2007,03,27,07,36,1.10
2007,03,27,07,37,1.10
2007,03,27,07,38,1.10
2007,03,27,07,39,1.10
2007,03,27,07,40,1.10
2007,03,27,07,41,1.10
2007,03,27,07,42,1.10
2007,03,27,07,43,1.10
2007,03,27,07,44,1.10
2007,03,27,07,45,1.10
2007,03,27,07,46,1.10
2007,03,27,07,47,1.20
2007,03,27,07,48,1.20
2007,03,27,07,49,1.20
2007,03,27,07,50,1.20
2007,03,27,07,51,1.20
2007,03,27,07,52,1.20
2007,03,27,07,53,1.20
2007,03,27,07,54,1.10
2007,03,27,07,55,1.10
2007,03,27,07,56,1.10
2007,03,27,07,57,1.20
2007,03,27,07,58,1.20
2007,03,27,07,59,1.20
2007,03,27,08,00,1.20
2007,03,27,08,01,1.20
2007,03,27,08,02,1.30
2007,03,27,08,03,1.30
2007,03,27,08,04,1.30
2007,03,27,08,05,1.30
2007,03,27,08,06,1.30
2007,03,27,08,07,1.30
2007,03,27,08,08,1.30
2007,03,27,08,09,1.30
2007,03,27,08,10,1.40
2007,03,27,08,11,1.40
2007,03,27,08,12,1.40
2007,03,27,08,13,1.40
2007,03,27,08,14,1.50
2007,03,27,08,15,1.50
2007,03,27,08,16,1.50
2007,03,27,08,17,1.60
2007,03,27,08,18,1.60
2007,03,27,08,19,1.60
2007,03,27,08,20,1.70
2007,03,27,08,21,1.70
2007,03,27,08,22,1.80
2007,03,27,08,23,1.80
2007,03,27,08,24,1.90
2007,03,27,08,25,2.00
2007,03,27,08,26,2.20
2007,03,27,08,27,2.30
2007,03,27,08,28,2.40
2007,03,27,08,29,2.40
2007,03,27,08,30,2.50
2007,03,27,08,31,2.60
2007,03,27,08,32,2.60
2007,03,27,08,33,2.70
2007,03,27,08,34,2.80
2007,03,27,08,35,2.80
2007,03,27,08,36,2.90
2007,03,27,08,37,2.90
2007,03,27,08,38,2.90
2007,03,27,08,39,3.10
2007,03,27,08,40,3.10
2007,03,27,08,41,3.20
2007,03,27,08,42,3.30
2007,03,27,08,43,3.40
2007,03,27,08,44,3.50
2007,03,27,08,45,3.60
2007,03,27,08,46,3.80
2007,03,27,08,47,3.90
2007,03,27,08,48,4.00
2007,03,27,08,49,4.10
2007,03,27,08,50,4.20
2007,03,27,08,51,4.20
2007,03,27,08,52,4.40
2007,03,27,08,53,4.50
2007,03,27,08,54,4.50
2007,03,27,08,55,4.60
2007,03,27,08,56,4.70
2007,03,27,08,57,4.80
2007,03,27,08,58,4.80
2007,03,27,08,59,4.90
2007,03,27,09,00,5.00
2007,03,27,09,01,5.10
2007,03,27,09,02,5.10
2007,03,27,09,03,5.20
2007,03,27,09,04,5.30
2007,03,27,09,05,5.40
2007,03,27,09,06,5.50
2007,03,27,09,07,5.60
2007,03,27,09,08,5.70
2007,03,27,09,09,5.80
2007,03,27,09,10,5.90
2007,03,27,09,11,6.10
2007,03,27,09,12,6.20
2007,03,27,09,13,6.40
2007,03,27,09,14,6.40
2007,03,27,09,15,6.50
2007,03,27,09,16,6.60
2007,03,27,09,17,6.60
2007,03,27,09,18,6.70
2007,03,27,09,19,6.80
2007,03,27,09,20,6.90
2007,03,27,09,21,7.10
2007,03,27,09,22,7.20
2007,03,27,09,23,7.30
2007,03,27,09,24,7.40
2007,03,27,09,25,7.50
2007,03,27,09,26,7.60
2007,03,27,09,27,7.80
2007,03,27,09,28,7.90
2007,03,27,09,29,8.00
2007,03,27,09,30,8.20
2007,03,27,09,31,8.20
2007,03,27,09,32,8.30
2007,03,27,09,33,8.30
2007,03,27,09,34,8.40
2007,03,27,09,35,8.40
2007,03,27,09,36,8.50
2007,03,27,09,37,8.50
2007,03,27,09,38,8.50
2007,03,27,09,39,8.50
2007,03,27,09,40,8.50
2007,03,27,09,41,8.50
2007,03,27,09,42,8.50
2007,03,27,09,43,8.60
2007,03,27,09,44,8.60
2007,03,27,09,45,8.60
2007,03,27,09,46,8.60
2007,03,27,09,47,8.70
2007,03,27,09,48,8.70
2007,03,27,09,49,8.70
2007,03,27,09,50,8.70
2007,03,27,09,51,8.80
2007,03,27,09,52,8.80
2007,03,27,09,53,8.90
2007,03,27,09,54,9.00
2007,03,27,09,55,9.00
2007,03,27,09,56,9.00
2007,03,27,09,57,9.00
2007,03,27,09,58,9.00
2007,03,27,09,59,9.00
2007,03,27,10,00,8.90
2007,03,27,10,01,8.80
2007,03,27,10,02,8.80
2007,03,27,10,03,8.70
2007,03,27,10,04,8.70
2007,03,27,10,05,8.70
2007,03,27,10,06,8.70
2007,03,27,10,07,8.70
2007,03,27,10,08,8.70
2007,03,27,10,09,8.70
2007,03,27,10,10,8.70
2007,03,27,10,11,8.70
2007,03,27,10,12,8.70
2007,03,27,10,13,8.80
2007,03,27,10,14,8.90
2007,03,27,10,15,9.00
2007,03,27,10,16,9.10
2007,03,27,10,17,9.20
2007,03,27,10,18,9.20
2007,03,27,10,19,9.30
2007,03,27,10,20,9.30
2007,03,27,10,21,9.30
2007,03,27,10,22,9.30
2007,03,27,10,23,9.30
2007,03,27,10,24,9.30
2007,03,27,10,25,9.20
2007,03,27,10,26,9.20
2007,03,27,10,27,9.30
2007,03,27,10,28,9.40
2007,03,27,10,29,9.40
2007,03,27,10,30,9.40
2007,03,27,10,31,9.40
2007,03,27,10,32,9.30
2007,03,27,10,33,9.30
2007,03,27,10,34,9.20
2007,03,27,10,35,9.10
2007,03,27,10,36,9.00
2007,03,27,10,37,8.90
2007,03,27,10,38,8.80
2007,03,27,10,39,8.70
2007,03,27,10,40,8.70
2007,03,27,10,41,8.70
2007,03,27,10,42,8.70
2007,03,27,10,43,8.80
2007,03,27,10,44,8.90
2007,03,27,10,45,9.00
2007,03,27,10,46,8.90
2007,03,27,10,47,8.90
2007,03,27,10,48,8.80
2007,03,27,10,49,8.90
2007,03,27,10,50,8.90
2007,03,27,10,51,8.90
2007,03,27,10,52,8.90
2007,03,27,10,53,8.80
2007,03,27,10,54,8.80
2007,03,27,10,55,8.70
2007,03,27,10,56,8.70
2007,03,27,10,57,8.60
2007,03,27,10,58,8.50
2007,03,27,10,59,8.40
2007,03,27,11,00,8.40
2007,03,27,11,01,8.40
2007,03,27,11,02,8.40
2007,03,27,11,03,8.40
2007,03,27,11,04,8.50
2007,03,27,11,05,8.50
2007,03,27,11,06,8.60
2007,03,27,11,07,8.60
2007,03,27,11,08,8.60
2007,03,27,11,09,8.60
2007,03,27,11,10,8.60
2007,03,27,11,11,8.50
2007,03,27,11,12,8.50
2007,03,27,11,13,8.60
2007,03,27,11,14,8.60
2007,03,27,11,15,8.60
2007,03,27,11,16,8.60
2007,03,27,11,17,8.60
2007,03,27,11,18,8.60
2007,03,27,11,19,8.70
2007,03,27,11,20,8.80
2007,03,27,11,21,8.80
2007,03,27,11,22,8.90
2007,03,27,11,23,8.90
2007,03,27,11,24,9.00
2007,03,27,11,25,9.00
2007,03,27,11,26,9.00
2007,03,27,11,27,9.10
2007,03,27,11,28,9.10
2007,03,27,11,29,9.20
2007,03,27,11,30,9.20
2007,03,27,11,31,9.20
2007,03,27,11,32,9.20
2007,03,27,11,33,9.00
2007,03,27,11,34,9.00
2007,03,27,11,35,8.90
2007,03,27,11,36,8.90
2007,03,27,11,37,8.90
2007,03,27,11,38,8.90
2007,03,27,11,39,9.00
2007,03,27,11,40,9.00
2007,03,27,11,41,9.10
2007,03,27,11,42,9.00
2007,03,27,11,43,9.00
2007,03,27,11,44,9.00
2007,03,27,11,45,9.00
2007,03,27,11,46,8.90
2007,03,27,11,47,8.90
2007,03,27,11,48,8.90
2007,03,27,11,49,8.90
2007,03,27,11,50,8.80
2007,03,27,11,51,8.90
2007,03,27,11,52,9.00
2007,03,27,11,53,9.00
2007,03,27,11,54,9.00
2007,03,27,11,55,9.10
2007,03,27,11,56,9.20
2007,03,27,11,57,9.20
2007,03,27,11,58,9.30
2007,03,27,11,59,9.30
2007,03,27,12,00,9.40
2007,03,27,12,01,9.40
2007,03,27,12,02,9.30
2007,03,27,12,03,9.20
2007,03,27,12,04,9.20
2007,03,27,12,05,9.20
2007,03,27,12,06,9.20
2007,03,27,12,07,9.20
2007,03,27,12,08,9.20
2007,03,27,12,09,9.20
2007,03,27,12,10,9.20
2007,03,27,12,11,9.20
2007,03,27,12,12,9.30
2007,03,27,12,13,9.30
2007,03,27,12,14,9.30
2007,03,27,12,15,9.40
2007,03,27,12,16,9.40
2007,03,27,12,17,9.40
2007,03,27,12,18,9.40
2007,03,27,12,19,9.40
2007,03,27,12,20,9.40
2007,03,27,12,21,9.40
2007,03,27,12,22,9.30
2007,03,27,12,23,9.30
2007,03,27,12,24,9.30
2007,03,27,12,25,9.30
2007,03,27,12,26,9.30
2007,03,27,12,27,9.30
2007,03,27,12,28,9.40
2007,03,27,12,29,9.50
2007,03,27,12,30,9.60
2007,03,27,12,31,9.60
2007,03,27,12,32,9.60
2007,03,27,12,33,9.50
2007,03,27,12,34,9.40
2007,03,27,12,35,9.30
2007,03,27,12,36,9.20
2007,03,27,12,37,9.20
2007,03,27,12,38,9.10
2007,03,27,12,39,9.10
2007,03,27,12,40,9.10
2007,03,27,12,41,9.10
2007,03,27,12,42,9.10
2007,03,27,12,43,9.00
2007,03,27,12,44,9.00
2007,03,27,12,45,9.00
2007,03,27,12,46,9.10
2007,03,27,12,47,9.20
2007,03,27,12,48,9.00
2007,03,27,12,49,9.00
2007,03,27,12,50,9.00
2007,03,27,12,51,9.10
2007,03,27,12,52,9.20
2007,03,27,12,53,9.30
2007,03,27,12,54,9.40
2007,03,27,12,55,9.50
2007,03,27,12,56,9.50
2007,03,27,12,57,9.50
2007,03,27,12,58,9.50
2007,03,27,12,59,9.40
2007,03,27,13,00,9.40
2007,03,27,13,01,9.30
2007,03,27,13,02,9.30
2007,03,27,13,03,9.30
2007,03,27,13,04,9.20
2007,03,27,13,05,9.20
2007,03,27,13,06,9.10
2007,03,27,13,07,9.10
2007,03,27,13,08,9.10
2007,03,27,13,09,9.10
2007,03,27,13,10,9.10
2007,03,27,13,11,9.20
2007,03,27,13,12,9.20
2007,03,27,13,13,9.20
2007,03,27,13,14,9.20
2007,03,27,13,15,9.20
2007,03,27,13,16,9.20
2007,03,27,13,17,9.20
2007,03,27,13,18,9.20
2007,03,27,13,19,9.20
2007,03,27,13,20,9.20
2007,03,27,13,21,9.10
2007,03,27,13,22,9.00
2007,03,27,13,23,8.90
2007,03,27,13,24,8.90
2007,03,27,13,25,9.00
2007,03,27,13,26,9.00
2007,03,27,13,27,9.00
2007,03,27,13,28,9.00
2007,03,27,13,29,9.10
2007,03,27,13,30,9.10
2007,03,27,13,31,9.00
2007,03,27,13,32,9.00
2007,03,27,13,33,9.00
2007,03,27,13,34,9.10
2007,03,27,13,35,9.10
2007,03,27,13,36,9.20
2007,03,27,13,37,9.20
2007,03,27,13,38,9.20
2007,03,27,13,39,9.20
2007,03,27,13,40,9.20
2007,03,27,13,41,9.20
2007,03,27,13,42,9.10
2007,03,27,13,43,9.10
2007,03,27,13,44,9.00
2007,03,27,13,45,9.00
2007,03,27,13,46,9.10
2007,03,27,13,47,9.10
2007,03,27,13,48,9.20
2007,03,27,13,49,9.10
2007,03,27,13,50,9.00
2007,03,27,13,51,8.90
2007,03,27,13,52,8.80
2007,03,27,13,53,8.70
2007,03,27,13,54,8.70
2007,03,27,13,55,8.70
2007,03,27,13,56,8.70
2007,03,27,13,57,8.70
2007,03,27,13,58,8.70
2007,03,27,13,59,8.70
2007,03,27,14,00,8.70
2007,03,27,14,01,8.70
2007,03,27,14,02,8.70
2007,03,27,14,03,8.70
2007,03,27,14,04,8.70
2007,03,27,14,05,8.70
2007,03,27,14,06,8.80
2007,03,27,14,07,8.90
2007,03,27,14,08,9.00
2007,03,27,14,09,9.00
2007,03,27,14,10,9.00
2007,03,27,14,11,9.00
2007,03,27,14,12,9.00
2007,03,27,14,13,9.00
2007,03,27,14,14,9.00
2007,03,27,14,15,9.00
2007,03,27,14,16,8.90
2007,03,27,14,17,9.00
2007,03,27,14,18,9.00
2007,03,27,14,19,9.00
2007,03,27,14,20,9.10
2007,03,27,14,21,9.20
2007,03,27,14,22,9.30
2007,03,27,14,23,9.40
2007,03,27,14,24,9.40
2007,03,27,14,25,9.50
2007,03,27,14,26,9.40
2007,03,27,14,27,9.40
2007,03,27,14,28,9.50
2007,03,27,14,29,9.50
2007,03,27,14,30,9.40
2007,03,27,14,31,9.40
2007,03,27,14,32,9.40
2007,03,27,14,33,9.30
2007,03,27,14,34,9.20
2007,03,27,14,35,9.20
2007,03,27,14,36,9.20
2007,03,27,14,37,9.20
2007,03,27,14,38,9.10
2007,03,27,14,39,9.10
2007,03,27,14,40,9.20
2007,03,27,14,41,9.20
2007,03,27,14,42,9.20
2007,03,27,14,43,9.20
2007,03,27,14,44,9.20
2007,03,27,14,45,9.20
2007,03,27,14,46,9.20
2007,03,27,14,47,9.10
2007,03,27,14,48,9.10
2007,03,27,14,49,9.20
2007,03,27,14,50,9.20
2007,03,27,14,51,9.20
2007,03,27,14,52,9.20
2007,03,27,14,53,9.20
2007,03,27,14,54,9.30
2007,03,27,14,55,9.30
2007,03,27,14,56,9.30
2007,03,27,14,57,9.30
2007,03,27,14,58,9.30
2007,03,27,14,59,9.30
2007,03,27,15,00,9.30
2007,03,27,15,01,9.30
2007,03,27,15,02,9.30
2007,03,27,15,03,9.30
2007,03,27,15,04,9.20
2007,03,27,15,05,9.20
2007,03,27,15,06,9.20
2007,03,27,15,07,9.20
2007,03,27,15,08,9.20
2007,03,27,15,09,9.20
2007,03,27,15,10,9.10
2007,03,27,15,11,9.10
2007,03,27,15,12,9.10
2007,03,27,15,13,9.10
2007,03,27,15,14,9.10
2007,03,27,15,15,9.10
2007,03,27,15,16,9.20
2007,03,27,15,17,9.20
2007,03,27,15,18,9.30
2007,03,27,15,19,9.40
2007,03,27,15,20,9.50
2007,03,27,15,21,9.60
2007,03,27,15,22,9.60
2007,03,27,15,23,9.70
2007,03,27,15,24,9.70
2007,03,27,15,25,9.70
2007,03,27,15,26,9.70
2007,03,27,15,27,9.70
2007,03,27,15,28,9.70
2007,03,27,15,29,9.70
2007,03,27,15,30,9.60
2007,03,27,15,31,9.60
2007,03,27,15,32,9.60
2007,03,27,15,33,9.60
2007,03,27,15,34,9.60
2007,03,27,15,35,9.50
2007,03,27,15,36,9.50
2007,03,27,15,37,9.40
2007,03,27,15,38,9.40
2007,03,27,15,39,9.40
2007,03,27,15,40,9.40
2007,03,27,15,41,9.40
2007,03,27,15,42,9.40
2007,03,27,15,43,9.40
2007,03,27,15,44,9.30
2007,03,27,15,45,9.30
2007,03,27,15,46,9.40
2007,03,27,15,47,9.40
2007,03,27,15,48,9.50
2007,03,27,15,49,9.50
2007,03,27,15,50,9.60
2007,03,27,15,51,9.60
2007,03,27,15,52,9.60
2007,03,27,15,53,9.60
2007,03,27,15,54,9.60
2007,03,27,15,55,9.50
2007,03,27,15,56,9.50
2007,03,27,15,57,9.50
2007,03,27,15,58,9.40
2007,03,27,15,59,9.40
2007,03,27,16,00,9.40
2007,03,27,16,01,9.40
2007,03,27,16,02,9.30
2007,03,27,16,03,9.40
2007,03,27,16,04,9.40
2007,03,27,16,05,9.50
2007,03,27,16,06,9.50
2007,03,27,16,07,9.50
2007,03,27,16,08,9.50
2007,03,27,16,09,9.50
2007,03,27,16,10,9.50
2007,03,27,16,11,9.40
2007,03,27,16,12,9.30
2007,03,27,16,13,9.30
2007,03,27,16,14,9.30
2007,03,27,16,15,9.20
2007,03,27,16,16,9.30
2007,03,27,16,17,9.30
2007,03,27,16,18,9.20
2007,03,27,16,19,9.30
2007,03,27,16,20,9.30
2007,03,27,16,21,9.30
2007,03,27,16,22,9.30
2007,03,27,16,23,9.30
2007,03,27,16,24,9.30
2007,03,27,16,25,9.30
2007,03,27,16,26,9.40
2007,03,27,16,27,9.50
2007,03,27,16,28,9.60
2007,03,27,16,29,9.60
2007,03,27,16,30,9.60
2007,03,27,16,31,9.60
2007,03,27,16,32,9.60
2007,03,27,16,33,9.60
2007,03,27,16,34,9.70
2007,03,27,16,35,9.70
2007,03,27,16,36,9.70
2007,03,27,16,37,9.70
2007,03,27,16,38,9.70
2007,03,27,16,39,9.70
2007,03,27,16,40,9.70
2007,03,27,16,41,9.70
2007,03,27,16,42,9.80
2007,03,27,16,43,9.80
2007,03,27,16,44,9.80
2007,03,27,16,45,9.90
2007,03,27,16,46,9.90
2007,03,27,16,47,9.80
2007,03,27,16,48,9.80
2007,03,27,16,49,9.80
2007,03,27,16,50,9.80
2007,03,27,16,51,9.80
2007,03,27,16,52,9.80
2007,03,27,16,53,9.80
2007,03,27,16,54,9.90
2007,03,27,16,55,9.90
2007,03,27,16,56,10.00
2007,03,27,16,57,10.10
2007,03,27,16,58,10.10
2007,03,27,16,59,10.10
2007,03,27,17,00,10.20
2007,03,27,17,01,10.30
2007,03,27,17,02,10.30
2007,03,27,17,03,10.20
2007,03,27,17,04,10.10
2007,03,27,17,05,10.10
2007,03,27,17,06,10.10
2007,03,27,17,07,10.10
2007,03,27,17,08,10.10
2007,03,27,17,09,10.10
2007,03,27,17,10,10.10
2007,03,27,17,11,10.00
2007,03,27,17,12,9.90
2007,03,27,17,13,9.90
2007,03,27,17,14,10.00
2007,03,27,17,15,10.10
2007,03,27,17,16,10.10
2007,03,27,17,17,10.10
2007,03,27,17,18,10.10
2007,03,27,17,19,10.10
2007,03,27,17,20,10.10
2007,03,27,17,21,10.20
2007,03,27,17,22,10.40
2007,03,27,17,23,10.50
2007,03,27,17,24,10.60
2007,03,27,17,25,10.60
2007,03,27,17,26,10.60
2007,03,27,17,27,10.60
2007,03,27,17,28,10.70
2007,03,27,17,29,10.80
2007,03,27,17,30,10.80
2007,03,27,17,31,10.70
2007,03,27,17,32,10.70
2007,03,27,17,33,10.70
2007,03,27,17,34,10.70
2007,03,27,17,35,10.70
2007,03,27,17,36,10.70
2007,03,27,17,37,10.80
2007,03,27,17,38,10.80
2007,03,27,17,39,10.80
2007,03,27,17,40,10.70
2007,03,27,17,41,10.80
2007,03,27,17,42,10.80
2007,03,27,17,43,10.70
2007,03,27,17,44,10.70
2007,03,27,17,45,10.70
2007,03,27,17,46,10.70
2007,03,27,17,47,10.60
2007,03,27,17,48,10.60
2007,03,27,17,49,10.60
2007,03,27,17,50,10.60
2007,03,27,17,51,10.60
2007,03,27,17,52,10.40
2007,03,27,17,53,10.40
2007,03,27,17,54,10.30
2007,03,27,17,55,10.30
2007,03,27,17,56,10.20
2007,03,27,17,57,10.20
2007,03,27,17,58,10.20
2007,03,27,17,59,10.20
2007,03,27,18,00,10.10
2007,03,27,18,01,10.00
2007,03,27,18,02,9.90
2007,03,27,18,03,9.80